Waarnemingen

Advertentie
Mijn weer
Westdorpe aws, Nederland (6319): temperatuur & dauwpunt: 23.03.2017 20:00:00 - 29.03.2017 20:00:00 (CEST)Westdorpe aws, Nederland (6319): temperatuur 5cm: 23.03.2017 20:00:00 - 29.03.2017 20:00:00 (CEST)Westdorpe aws, Nederland (6319): windsnelheid & windstoten: 23.03.2017 20:00:00 - 29.03.2017 20:00:00 (CEST)Westdorpe aws, Nederland (6319): windrichting: 23.03.2017 20:00:00 - 29.03.2017 20:00:00 (CEST)Westdorpe aws, Nederland (6319): luchtdruk: 23.03.2017 20:00:00 - 29.03.2017 20:00:00 (CEST)Westdorpe aws, Nederland (6319): zicht: 23.03.2017 20:00:00 - 29.03.2017 20:00:00 (CEST)Westdorpe aws, Nederland (6319): neerslag: 23.03.2017 20:00:00 - 29.03.2017 20:00:00 (CEST)
Datum & Tijd tt [°C] td [°C] tt 5cm [°C] ff [km/u] ff [kn] fx [km/u] fx [kn] dd ppp [hPa] vv [km] rr [mm]
29.03.2017 20:00:00 15,9 7,6 14,4 18 10 36 19 WZW 1024,5 29 0,0
29.03.2017 19:00:00 16,4 7,9 15,1 25 14 40 21 WZW 1024,0 46 0,0
29.03.2017 18:00:00 16,6 8,2 15,6 25 14 36 19 ZW 1023,8 30 0,0
29.03.2017 17:00:00 16,7 9,6 16,0 25 14 36 19 ZW 1023,9 32 0,0
29.03.2017 16:00:00 15,8 9,9 16,2 29 16 43 23 ZW 1024,5 34 0,0
29.03.2017 15:00:00 15,3 10,3 17,4 25 14 40 21 ZZW 1024,7 27 0,0
29.03.2017 14:00:00 14,3 9,8 15,2 25 14 43 23 ZW 1025,1 31 0,0
29.03.2017 13:00:00 14,6 9,6 15,3 25 14 43 23 ZW 1025,0 23 0,0
29.03.2017 12:00:00 13,9 9,2 14,7 29 16 47 25 ZW 1025,0 30 0,0
29.03.2017 11:00:00 12,2 8,8 12,3 29 16 40 21 ZW 1024,8 23 0,0
29.03.2017 10:00:00 11,3 8,2 11,2 25 14 40 21 ZW 1024,6 18 0,0
29.03.2017 09:00:00 11,6 7,3 10,8 22 12 32 18 ZW 1024,0 33 0,0
29.03.2017 08:00:00 10,9 7,3 10,2 18 10 32 18 ZW 1023,5 33 0,0
29.03.2017 07:00:00 11,4 7,3 10,5 22 12 36 19 ZW 1023,1 28 0,0
29.03.2017 06:00:00 11,6 7,5 10,7 22 12 36 19 ZW 1023,0 25 0,0
29.03.2017 05:00:00 12,1 7,6 9,8 22 12 29 16 ZZW 1022,9 21 0,0
29.03.2017 04:00:00 10,9 7,8 9,7 11 6 25 14 Z 1023,3 16 0,0
29.03.2017 03:00:00 10,8 7,7 8,8 18 10 25 14 ZZW 1023,7 21 0,0
29.03.2017 02:00:00 10,8 8,0 9,1 18 10 29 16 ZW 1023,6 18 0,0
29.03.2017 01:00:00 11,0 8,1 9,6 18 10 29 16 ZW 1023,7 18 0,0
29.03.2017 00:00:00 11,4 8,2 8,9 18 10 22 12 ZZW 1023,5 18 0,0
28.03.2017 23:00:00 11,1 7,9 9,2 18 10 25 14 ZW 1023,4 19 0,0
28.03.2017 22:00:00 11,7 8,0 9,9 18 10 29 16 ZW 1023,1 22 0,0
28.03.2017 21:00:00 12,0 8,0 10,3 11 6 25 14 ZW 1022,6 30 0,0
28.03.2017 20:00:00 14,5 8,2 12,8 18 10 43 23 WZW 1021,9 36 0,0
28.03.2017 19:00:00 16,9 9,2 16,0 29 16 43 23 W 1021,3 25 0,0
28.03.2017 18:00:00 17,6 9,4 16,2 14 8 40 21 WNW 1020,8 18 0,0
28.03.2017 17:00:00 19,7 7,8 19,6 25 14 40 21 WZW 1020,5 35 0,0
28.03.2017 16:00:00 19,3 7,4 19,3 22 12 36 19 ZW 1020,6 20 0,0
28.03.2017 15:00:00 19,1 7,2 19,9 25 14 40 21 ZW 1020,9 16 0,0
28.03.2017 14:00:00 19,0 7,6 20,4 18 10 29 16 ZZW 1021,1 18 0,0
28.03.2017 13:00:00 18,3 7,4 19,8 18 10 22 12 ZW 1021,3 12 0,0
28.03.2017 12:00:00 17,5 5,7 19,2 7 4 14 8 Z 1021,3 16 0,0
28.03.2017 11:00:00 15,1 4,6 15,4 11 6 11 6 Z 1021,1 20 0,0
28.03.2017 10:00:00 11,9 4,4 9,9 4 2 7 4 ZZO 1020,8 22 0,0
28.03.2017 09:00:00 6,7 2,8 2,2 0 0 7 4 N 1020,5 16 0,0
28.03.2017 08:00:00 2,7 0,8 -1,2 4 2 4 2 ZZO 1020,3 17 0,0
28.03.2017 07:00:00 2,5 0,6 -1,2 0 0 4 2 N 1020,1 18 0,0
28.03.2017 06:00:00 2,7 1,5 -0,7 0 0 4 2 N 1020,0 17 0,0
28.03.2017 05:00:00 3,0 1,3 -0,7 4 2 4 2 O 1020,1 17 0,0
28.03.2017 04:00:00 3,3 0,9 -0,4 4 2 4 2 ZZW 1020,3 21 0,0
28.03.2017 03:00:00 4,2 2,0 -0,3 4 2 7 4 ZZW 1020,4 24 0,0
28.03.2017 02:00:00 5,1 1,9 -0,2 4 2 4 2 ONO 1020,3 32 0,0
28.03.2017 01:00:00 5,2 2,8 0,2 4 2 4 2 ONO 1020,6 30 0,0
28.03.2017 00:00:00 7,2 1,7 0,8 0 0 4 2 N 1020,9 47 0,0
27.03.2017 23:00:00 7,7 2,8 0,9 7 4 11 6 OZO 1021,0 49 0,0
27.03.2017 22:00:00 8,5 3,2 1,8 4 2 7 4 NO 1020,8 49 0,0
27.03.2017 21:00:00 11,2 3,3 3,4 0 0 4 2 N 1020,6 47 0,0
27.03.2017 20:00:00 15,2 0,4 8,4 4 2 7 4 O 1020,3 49 0,0
27.03.2017 19:00:00 17,0 -0,3 13,4 7 4 18 10 OZO 1020,0 43 0,0
27.03.2017 18:00:00 17,2 -0,1 15,9 14 8 25 14 ZO 1020,2 35 0,0
27.03.2017 17:00:00 17,4 -1,1 17,4 14 8 25 14 ZO 1020,3 37 0,0
27.03.2017 16:00:00 17,6 0,1 18,5 14 8 29 16 OZO 1020,8 30 0,0
27.03.2017 15:00:00 16,9 0,5 19,0 14 8 29 16 OZO 1021,4 27 0,0
27.03.2017 14:00:00 16,3 0,6 18,5 18 10 32 18 O 1022,0 34 0,0
27.03.2017 13:00:00 15,9 3,1 18,2 14 8 29 16 OZO 1022,5 25 0,0
27.03.2017 12:00:00 14,8 2,9 17,2 14 8 22 12 O 1022,7 27 0,0
27.03.2017 11:00:00 13,0 4,2 14,5 11 6 18 10 O 1022,9 21 0,0
27.03.2017 10:00:00 10,2 4,3 9,1 11 6 14 8 OZO 1023,1 20 0,0
27.03.2017 09:00:00 6,9 3,6 3,7 7 4 11 6 O 1023,1 11 0,0
27.03.2017 08:00:00 3,6 2,0 -0,8 7 4 11 6 O 1022,9 9 0,0
27.03.2017 07:00:00 3,3 2,2 -0,9 4 2 11 6 O 1022,5 7 0,0
27.03.2017 06:00:00 2,8 1,8 0,1 7 4 11 6 ONO 1022,5 6 0,0
27.03.2017 05:00:00 3,4 2,4 0,8 4 2 11 6 ONO 1022,7 8 0,0
27.03.2017 04:00:00 3,7 2,4 1,2 7 4 11 6 NO 1022,9 8 0,0
27.03.2017 03:00:00 4,3 3,0 1,0 11 6 11 6 NO 1023,1 8 0,0
27.03.2017 02:00:00 4,5 3,0 2,2 7 4 14 8 NNO 1023,3 9 0,0
27.03.2017 01:00:00 5,4 3,4 2,4 11 6 11 6 NO 1023,6 11 0,0
27.03.2017 00:00:00 6,3 3,5 4,1 11 6 18 10 NO 1023,6 14 0,0
26.03.2017 23:00:00 7,3 3,6 4,8 14 8 14 8 NO 1023,8 18 0,0
26.03.2017 22:00:00 8,5 3,7 5,9 11 6 18 10 ONO 1023,7 21 0,0
26.03.2017 21:00:00 9,6 3,9 7,6 14 8 22 12 NO 1023,4 23 0,0
26.03.2017 20:00:00 11,5 4,3 9,9 18 10 29 16 NO 1022,9 24 0,0
26.03.2017 19:00:00 13,1 5,5 12,0 25 14 36 19 NNO 1022,7 20 0,0
26.03.2017 18:00:00 13,9 5,8 13,6 29 16 36 19 NNO 1022,9 21 0,0
26.03.2017 17:00:00 14,7 5,8 14,7 25 14 36 19 NNO 1022,9 22 0,0
26.03.2017 16:00:00 15,1 4,8 15,5 22 12 29 16 NO 1023,1 35 0,0
26.03.2017 15:00:00 14,4 3,4 15,0 18 10 32 18 ONO 1023,6 24 0,0
26.03.2017 14:00:00 13,8 4,5 14,6 14 8 25 14 ONO 1024,1 21 0,0
26.03.2017 13:00:00 12,3 4,5 14,0 18 10 29 16 ONO 1024,3 23 0,0
26.03.2017 12:00:00 11,0 4,7 12,4 18 10 29 16 NO 1024,6 24 0,0
26.03.2017 11:00:00 9,2 4,9 10,6 22 12 32 18 NO 1024,7 18 0,0
26.03.2017 10:00:00 7,5 4,3 8,0 18 10 25 14 NO 1024,6 22 0,0
26.03.2017 09:00:00 6,2 3,6 5,5 18 10 22 12 ONO 1024,5 21 0,0
26.03.2017 08:00:00 5,0 3,0 4,0 11 6 25 14 ONO 1024,4 24 0,0
26.03.2017 07:00:00 5,3 3,0 4,3 18 10 29 16 NO 1024,4 29 0,0
26.03.2017 06:00:00 5,4 2,8 4,4 22 12 29 16 NO 1024,1 28 0,0
26.03.2017 05:00:00 5,4 2,5 4,5 18 10 25 14 NO 1023,8 37 0,0
26.03.2017 04:00:00 5,7 2,0 4,4 14 8 25 14 NO 1024,0 43 0,0
26.03.2017 03:00:00 6,2 1,2 4,8 18 10 29 16 NO 1024,2 46 0,0
26.03.2017 02:00:00 6,9 0,5 5,4 18 10 29 16 NO 1024,5 49 0,0
26.03.2017 01:00:00 7,3 0,1 6,0 18 10 29 16 NO 1024,6 50 0,0
26.03.2017 00:00:00 7,9 0,5 6,3 18 10 22 12 NO 1024,7 49 0,0
25.03.2017 23:00:00 8,3 1,6 6,9 14 8 25 14 NO 1024,8 50 0,0
25.03.2017 22:00:00 9,7 0,1 8,4 18 10 25 14 NO 1024,7 46 0,0
25.03.2017 21:00:00 10,9 -1,0 9,5 22 12 36 19 NO 1024,5 43 0,0
25.03.2017 20:00:00 12,6 -2,7 11,2 29 16 40 21 NO 1024,1 49 0,0
25.03.2017 19:00:00 14,1 -1,4 12,9 25 14 50 27 NO 1023,9 41 0,0
25.03.2017 18:00:00 15,0 -1,4 14,5 36 19 54 29 NO 1024,0 33 0,0
25.03.2017 17:00:00 15,3 -1,0 15,2 32 18 50 27 NO 1024,8 18 0,0
25.03.2017 16:00:00 15,3 -0,4 15,2 32 18 50 27 NO 1025,8 37 0,0
25.03.2017 15:00:00 14,9 1,5 14,9 32 18 50 27 NO 1026,7 29 0,0
25.03.2017 14:00:00 14,2 1,9 14,5 36 19 50 27 NO 1027,4 27 0,0
25.03.2017 13:00:00 13,7 0,8 14,8 32 18 54 29 ONO 1028,2 26 0,0
25.03.2017 12:00:00 12,1 3,4 12,8 29 16 43 23 NO 1029,1 26 0,0
25.03.2017 11:00:00 9,6 3,0 9,8 25 14 36 19 NO 1029,6 23 0,0
25.03.2017 10:00:00 7,5 2,7 7,3 18 10 25 14 NO 1030,1 19 0,0
25.03.2017 09:00:00 5,2 2,1 4,4 14 8 22 12 NO 1030,2 16 0,0
25.03.2017 08:00:00 3,9 1,3 2,7 14 8 22 12 NO 1030,1 15 0,0
25.03.2017 07:00:00 3,9 1,3 2,6 18 10 22 12 NO 1030,1 18 0,0
25.03.2017 06:00:00 4,5 1,5 3,1 14 8 22 12 NO 1030,3 25 0,0
25.03.2017 05:00:00 4,9 1,7 3,5 14 8 22 12 NO 1030,4 28 0,0
25.03.2017 04:00:00 5,3 2,0 4,0 14 8 25 14 NO 1030,4 31 0,0
25.03.2017 03:00:00 6,1 2,2 4,6 18 10 22 12 NO 1030,8 30 0,0
25.03.2017 02:00:00 6,8 2,4 5,3 18 10 29 16 NO 1030,6 34 0,0
25.03.2017 01:00:00 7,8 2,7 6,4 18 10 29 16 NO 1030,9 38 0,0
25.03.2017 00:00:00 8,2 3,3 6,7 22 12 25 14 NO 1030,7 30 0,0
24.03.2017 23:00:00 8,6 3,8 6,5 14 8 25 14 NO 1030,6 21 0,0
24.03.2017 22:00:00 9,5 4,1 7,8 18 10 25 14 NO 1029,9 22 0,0
24.03.2017 21:00:00 10,5 4,6 8,8 18 10 32 18 ONO 1029,3 20 0,0
24.03.2017 20:00:00 11,6 4,9 10,2 22 12 36 19 NO 1028,7 19 0,0
24.03.2017 19:00:00 13,4 4,9 12,2 22 12 36 19 NO 1028,3 23 0,0
24.03.2017 18:00:00 13,9 5,3 13,3 25 14 36 19 NO 1027,6 22 0,0
24.03.2017 17:00:00 13,7 4,3 13,7 22 12 36 19 ONO 1027,5 19 0,0
24.03.2017 16:00:00 13,2 5,3 13,7 22 12 36 19 ONO 1027,9 18 0,0
24.03.2017 15:00:00 12,6 5,1 13,6 25 14 40 21 ONO 1027,7 15 0,0
24.03.2017 14:00:00 11,7 5,4 12,1 29 16 36 19 ONO 1027,7 13 0,0
24.03.2017 13:00:00 11,2 5,8 11,9 22 12 32 18 ONO 1028,4 11 0,0
24.03.2017 12:00:00 10,7 5,8 12,1 22 12 40 21 ONO 1027,8 11 0,0
24.03.2017 11:00:00 8,9 5,8 8,3 25 14 36 19 ONO 1027,6 8 0,0
24.03.2017 10:00:00 7,0 5,0 6,7 14 8 29 16 NO 1026,8 6 0,0
24.03.2017 09:00:00 6,2 4,4 5,3 11 6 29 16 ONO 1026,0 4,9 0,0
24.03.2017 08:00:00 5,6 4,2 4,8 18 10 25 14 ONO 1024,1 4,4 0,0
24.03.2017 07:00:00 5,7 4,2 4,7 18 10 25 14 ONO 1023,6 4,4 0,0
24.03.2017 06:00:00 5,9 4,2 5,0 18 10 32 18 ONO 1023,4 5 0,0
24.03.2017 05:00:00 6,3 4,3 5,6 25 14 36 19 ONO 1022,7 6 0,0
24.03.2017 04:00:00 6,7 4,3 5,9 25 14 32 18 ONO 1022,7 8 0,0
24.03.2017 03:00:00 7,2 4,4 6,5 25 14 32 18 ONO 1022,9 10 0,0
24.03.2017 02:00:00 7,8 4,6 7,1 18 10 36 19 ONO 1022,2 11 0,0
24.03.2017 01:00:00 8,3 4,4 6,9 22 12 32 18 ONO 1021,5 16 0,0
24.03.2017 00:00:00 8,5 4,3 7,3 18 10 36 19 NO 1020,2 23 0,0
23.03.2017 23:00:00 9,5 4,5 8,4 22 12 36 19 NO 1019,3 27 0,0
23.03.2017 22:00:00 10,1 5,1 9,0 22 12 36 19 NO 1018,6 20 0,0
23.03.2017 21:00:00 10,9 4,8 9,5 22 12 32 18 NO 1017,5 21 0,0
23.03.2017 20:00:00 - - - - - - - - - - -

tt = temperatuur
td = dauwpunt
tt 5cm = temperatuur 5cm
ff = windsnelheid
fx = windstoten
dd = windrichting
ppp = luchtdruk
vv = zicht
rr = neerslag

Weerstations in de omgeving